Preview of NWS' New Version of Forecast
This preview is not operational and should not be used for support decisions.

Regional Weather Roundup (RWR)

Issued by Raleigh, NC (RAH)

                            
000
ASUS42 KRAH 200910
RWRRAH
NORTH CAROLINA WEATHER ROUNDUP
NATIONAL WEATHER SERVICE RALEIGH NC
400 AM EST WED FEB 20 2019

NOTE: "FAIR" INDICATES FEW OR NO CLOUDS BELOW 12,000 FEET WITH NO
SIGNIFICANT WEATHER AND/OR OBSTRUCTIONS TO VISIBILITY.

NCZ001-053-055-056-065-067-201000-
WESTERN NORTH CAROLINA
  
CITY           SKY/WX    TMP DP  RH WIND       PRES   REMARKS
ASHEVILLE      SLEET     33  31  92 S8        30.31F FOG     WCI  26  
JEFFERSON      MIX PCPN  27  27  99 SE6       30.28S WCI  21          
MORGANTON      DRIZZLE   33  33  99 CALM      30.43S                  
HICKORY        LGT RAIN  33  33 100 NE5       30.38F FOG     WCI  29  
WILKESBORO     NOT AVBL                                               
RUTHERFORDTON  DRIZZLE   34  34 100 N7        30.38F WCI  28          
MOUNT AIRY     DRIZZLE   34  32  93 E9G16     30.41S WCI  26          
BOONE          MIX PCPN  28  28 100 CALM      30.29F                  
$$
 
NCZ021-022-025-041-071-084-088-201000-
CENTRAL NORTH CAROLINA
  
CITY           SKY/WX    TMP DP  RH WIND       PRES   REMARKS
CHARLOTTE      LGT RAIN  37  34  89 NE8       30.38F FOG     WCI  31  
GREENSBORO     LGT RAIN  33  33 100 E9        30.39F FOG     WCI  25  
WINSTON-SALEM  LGT RAIN  34  33  96 E6        30.41F FOG     WCI  29  
RALEIGH-DURHAM CLOUDY    34  31  88 VRB6      30.46F WCI  29          
FORT BRAGG     CLOUDY    36  36 100 E12       30.36F WCI  27          
FAYETTEVILLE   CLOUDY    37  32  82 NE8       30.39F WCI  31          
BURLINGTON     LGT RAIN  35  33  92 E6        30.43F FOG     WCI  30  
ROXBORO        CLOUDY    32  32 100 E6        30.48F FOG     WCI  26  
HENDERSON      MIX PCPN  30  28  93 E7        30.46F WCI  23          
LOUISBURG      CLOUDY    32  32 100 NE6       30.48F WCI  26          
LAURINBURG     CLOUDY    38  34  85 E9        30.39F WCI  31          
$$
 
NCZ011-015-027-028-043-044-047-080-103-201000-
NORTHEASTERN NORTH CAROLINA
  
CITY           SKY/WX    TMP DP  RH WIND       PRES   REMARKS
ROCKY MT-WILSO CLOUDY    34  30  85 NE3       30.49F                  
GREENVILLE     DRIZZLE   36  32  87 E6        30.47F WCI  31          
WASHINGTON     DRIZZLE   36  33  90 NE7       30.49F WCI  30          
ELIZABETH CITY CLOUDY    37  32  82 NE8       30.51F WCI  31          
MANTEO         CLOUDY    39  33  78 NE12      30.51F WCI  32          
CAPE HATTERAS  LGT RAIN  48  37  65 NE12G20   30.47F                  
$$
 
NCZ078-087-090-091-093-098-101-201000-
SOUTHEASTERN NORTH CAROLINA
  
CITY           SKY/WX    TMP DP  RH WIND       PRES   REMARKS
GOLDSBORO      MOCLDY    36  30  80 NE10      30.44F WCI  28          
KINSTON        MIX PCPN  35  33  91 NE12      30.46F WCI  27          
KENANSVILLE    LGT RAIN  36  34  93 E7        30.43F FOG     WCI  30  
NEW BERN       LGT RAIN  38  35  89 NE13      30.47F WCI  30          
CHERRY POINT   RAIN      42  39  89 NE17      30.45F                  
BEAUFORT       CLOUDY    43  41  93 NE16G24   30.43F                  
JACKSONVILLE   CLOUDY    38  33  82 NE9       30.44F WCI  31          
WILMINGTON     CLOUDY    38  31  76 NE13      30.41F WCI  30          
$$